{"data":{"norad_id":56547,"epoch":"2026-05-25T01:33:06.100416Z","epoch_age_seconds":72544,"freshness":"FRESH","line1":"1 56547U 23065AW  26145.06465394 -.00000216  00000+0  16800-5 0  9997","line2":"2 56547  43.0031 152.1767 0001150 305.7051  54.3693 15.27575935168157","mean_motion":15.27575935,"eccentricity":0.000115,"inclination_deg":43.0031,"raan_deg":152.1767,"arg_perigee_deg":305.7051,"mean_anomaly_deg":54.3693,"bstar":1.68e-6,"rev_number":16815,"period_min":94.266999564902,"perigee_km":482.27223033819,"apogee_km":483.85030593986,"semimajor_km":6861.198268139,"source":"CELESTRAK","updated_at":"2026-05-25T13:38:18.115940Z"}}